This demonstration page uses our WeatherBlox Daily Observations layout. Learn more.

Left ArrowRight Arrow

39.29038, -76.61219

Hourly Observations for July 13, 2020

Temp ( °F °C ) Dew Point ( °F °C ) Humidity (%) Winds ( mph kmh ) Pressure ( in mb ) Visibility ( mi km ) Precip ( " mm )
12:54 am 00:54 Mostly Clear 72 22.2 70 21.1 94 94 WNW 6 9 29.77 1008 10 16 0.00 0.00
1:54 am 01:54 Mostly Clear 71 21.7 69 20.6 94 94 WNW 3 6 29.78 1009 10 16 0.00 0.00
2:54 am 02:54 Mostly Clear 71 21.7 68 20 90 90 Calm 29.78 1009 10 16 0.00 0.00
3:54 am 03:54 Mostly Clear 70 21.1 67 19.4 90 90 Calm 29.78 1009 10 16 0.00 0.00
4:54 am 04:54 Mostly Clear 68 20 66 18.9 93 93 W 3 6 29.79 1009 10 16 0.00 0.00
5:54 am 05:54 Sunny 69 20.6 66 18.9 90 90 Calm 29.81 1009 10 16 0.00 0.00
6:54 am 06:54 Mostly Cloudy with Patchy Fog 71 21.7 67 19.4 87 87 NW 3 6 29.82 1010 9 14 0.00 0.00
7:54 am 07:54 Mostly Cloudy with Patchy Fog 74 23.3 68 20 82 82 WNW 5 7 29.83 1010 10 16 0.00 0.00
8:54 am 08:54 Mostly Cloudy 75 23.9 67 19.4 76 76 Calm 29.84 1010 10 16 0.00 0.00
9:54 am 09:54 Mostly Cloudy 77 25 67 19.4 71 71 VRB 3 6 29.84 1011 10 16 0.00 0.00
10:54 am 10:54 Mostly Cloudy 81 27.2 64 17.8 57 57 NNE 6 9 29.85 1011 10 16 0.00 0.00
11:54 am 11:54 Partly Cloudy 83 28.3 66 18.9 57 57 VRB 5 7 29.85 1011 10 16 0.00 0.00
12:54 pm 12:54 Mostly Sunny 86 30 63 17.2 46 46 Calm 29.85 1011 10 16 0.00 0.00
1:54 pm 13:54 Mostly Sunny 87 30.6 62 16.7 43 43 Calm 29.85 1011 10 16 0.00 0.00
2:54 pm 14:54 Mostly Sunny 89 31.7 61 16.1 39 39 NW 5 7 29.83 1010 10 16 0.00 0.00
3:54 pm 15:54 Partly Cloudy 90 32.2 61 16.1 38 38 WNW 10 17 29.83 1010 10 16 0.00 0.00
4:54 pm 16:54 Mostly Cloudy 86 30 61 16.1 43 43 WNW 8 13 29.82 1010 10 16 0.00 0.00
5:54 pm 17:54 Mostly Cloudy 83 28.3 64 17.8 53 53 NNW 10 17 29.83 1010 10 16 0.00 0.00
6:54 pm 18:54 Partly Cloudy 84 28.9 64 17.8 51 51 N 7 11 29.84 1011 10 16 0.00 0.00
7:54 pm 19:54 Partly Cloudy 82 27.8 64 17.8 55 55 NNW 5 7 29.85 1011 10 16 0.00 0.00
8:54 pm 20:54 Mostly Cloudy 83 28.3 61 16.1 48 48 Calm 29.87 1011 10 16 0.00 0.00
9:54 pm 21:54 Mostly Cloudy 79 26.1 65 18.3 62 62 SSW 6 9 29.88 1012 10 16 0.00 0.00
10:54 pm 22:54 Cloudy with Light Rain 77 25 68 20 74 74 W 3 6 29.90 1012 10 16 0.00 0.00
11:54 pm 23:54 Mostly Cloudy 78 25.6 66 18.9 67 67 Calm 29.90 1013 10 16 0.00 0.00

Powered by AerisWeather